Meath Environmental Platform

Observations for Trim Patrick St

Time AQI Temp °C Hum % Pres Pa CO μg/m³ H₂S μg/m³ NO μg/m³ NO₂ μg/m³ O₃ μg/m³ SO₂ μg/m³ PM1 μg/m³ PM2.5 μg/m³ PM10 μg/m³
Thursday 6 August 2026
09:47 1 22.5 55 71,788 0.02 0 3.3 9.55 56.89 4.78 2.86 7.63 8.39
09:46 1 22.3 53 72,226 0.04 0 3.23 2.11 16.57 4.56 2 7.01 7.71
09:45 1 22.2 58 72,837 0.05 0 4.08 0.95 18.35 6.66 2 6.69 7.36
09:44 1 22.1 54 73,222 0.03 0 3.56 9.75 33.93 5.55 2.86 7.66 8.42
09:43 1 21.9 56 73,312 0.01 0 3.77 7.28 47.45 5.24 2 6.77 7.45
09:42 1 21.8 58 73,469 0 0 3.71 7.63 46.47 4.83 2 5.88 6.47
09:41 1 21.7 56 73,738 0 0 3.49 5 38.96 4.37 2 6.03 6.64
09:40 1 21.6 57 73,923 0.02 0 3.45 2.76 31.4 6.22 2 6.73 7.41
09:39 1 21.4 55 74,043 0.02 0 3.19 5.88 37.92 5.21 2 6.09 6.7
09:38 1 21.4 56 74,047 0 0 3.28 7.97 43.15 5.16 2.86 7.56 8.32
09:37 1 21.4 55 74,025 0 0 3.36 6.27 46.58 4.7 2 6.84 7.53
09:36 1 21.3 56 74,035 0 0 3.45 1.72 31.6 4.99 2 6.8 7.48
09:35 1 21.3 56 74,053 0 0 3.37 4.58 31.9 4.74 2.86 7.56 8.32
09:34 1 21.3 55 74,035 0.03 0 3.5 4.08 31.59 4.53 2.86 7.58 8.34
09:33 1 21.4 57 74,015 0.12 0 3.57 2.96 31.83 5.26 2 7.5 8.25
09:32 1 21.3 55 74,027 0.01 0 3.5 3.83 35.51 4.53 2 6.84 7.52
09:31 1 21.3 58 74,045 0.02 0 3.68 3.5 41.32 4.09 2.86 7.41 8.15
09:30 1 21.3 57 74,066 0.04 0 3.96 2.1 6.66 3.95 2.86 7.46 8.21
09:29 1 21.3 57 74,102 0.09 0 3.63 3.36 20.91 4.44 2.86 6.73 7.4
09:28 1 21.3 56 74,145 0.12 0 3.54 5.35 18.1 4.62 2.86 6.75 7.43